Weather History for KCVH - January, 2014

Change the Weather History Date:

Thursday, January 30, 2014

  Actual Average (KSNS) Record (KSNS)
Temperature  
Mean Temperature 56 °F 52 °F  
Max Temperature 60 °F 62 °F 79 °F (1962)
Min Temperature 51 °F 42 °F 26 °F (1975)
Degree Days  
Heating Degree Days 10 13  
Month to date heating degree days 410  
Since 1 July heating degree days 1463  
Cooling Degree Days 0 0  
Month to date cooling degree days 0  
Year to date cooling degree days 0  
Growing Degree Days 6 (Base 50)    
Moisture  
Dew Point 50 °F    
Average Humidity 86    
Maximum Humidity 100    
Minimum Humidity 67    
Precipitation  
Precipitation 0.11 in 0.09 in 1.38 in (1963)
Month to date precipitation 2.51  
Year to date precipitation 2.51  
Since 1 July precipitation 6.62  
Sea Level Pressure  
Sea Level Pressure 29.92 in    
Wind  
Wind Speed 9 mph (West)    
Max Wind Speed 18 mph    
Max Gust Speed 23 mph    
Visibility 9 miles    
Events      
T = Trace of Precipitation, MM = Missing Value Source: NWS Daily Summary

Daily Weather History Graph

Daily Weather History Graph

Search for Another Location

Airport or City:

Trip Planner

Search our weather history database for the weather conditions in past years. The results will help you decide how hot, cold, wet, or windy it might be!

Date:

Astronomy

Jan. 30, 2014 Rise Set
Actual Time 7:09 AM PST 5:28 PM PST
Civil Twilight 6:42 AM PST 5:56 PM PST
Nautical Twilight 6:10 AM PST 6:27 PM PST
Astronomical Twilight 5:40 AM PST 6:58 PM PST
Moon 6:40 AM PST (1/30) 5:45 PM PST (1/30)
Length of Visible Light 11h 14m
Length of Day
10h 19m
Waning Crescent, 0% of the Moon is Illuminated
Jan 30
Waning Crescent
Jan 30
New
Feb 6
First Quarter
Feb 14
Full
Feb 22
Last Quarter

Hourly Weather History & Observations

Time (PST) Temp. Dew Point Humidity Pressure Visibility Wind Dir Wind Speed Gust Speed Precip Events Conditions
12:10 AM 57.2 °F 57.2 °F 100% 29.96 in 10.0 mi WNW 6.9 mph - N/A   Mostly Cloudy
12:30 AM 57.2 °F 57.2 °F 100% 29.96 in 10.0 mi NW 10.4 mph - N/A   Overcast
12:50 AM 57.2 °F 57.2 °F 100% 29.96 in 10.0 mi NW 16.1 mph - N/A   Overcast
1:10 AM 57.2 °F 55.4 °F 94% 29.95 in 10.0 mi NW 16.1 mph - N/A   Overcast
1:30 AM 57.2 °F 51.8 °F 82% 29.94 in 10.0 mi NW 13.8 mph 17.3 mph N/A   Overcast
1:55 AM 55.4 °F 48.2 °F 77% 29.93 in 10.0 mi NW 13.8 mph 20.7 mph N/A   Overcast
2:10 AM 55.4 °F 48.2 °F 77% 29.93 in 10.0 mi NW 15.0 mph 18.4 mph N/A   Overcast
2:30 AM 55.4 °F 51.8 °F 88% 29.93 in 10.0 mi NW 12.7 mph 16.1 mph N/A   Overcast
2:50 AM 55.4 °F 50.0 °F 82% 29.93 in 10.0 mi NW 12.7 mph - N/A   Overcast
3:10 AM 55.4 °F 51.8 °F 88% 29.91 in 10.0 mi NNW 9.2 mph - N/A   Overcast
3:30 AM 55.4 °F 51.8 °F 88% 29.89 in 10.0 mi NW 4.6 mph - N/A   Overcast
3:50 AM 55.4 °F 51.8 °F 88% 29.89 in 10.0 mi WNW 5.8 mph - N/A   Overcast
4:15 AM 53.6 °F 51.8 °F 94% 29.89 in 5.0 mi NW 9.2 mph - N/A   Overcast
4:30 AM 53.6 °F 51.8 °F 94% 29.89 in 9.0 mi NW 11.5 mph - N/A   Overcast
4:50 AM 53.6 °F 51.8 °F 94% 29.89 in 10.0 mi WNW 12.7 mph - N/A   Overcast
5:15 AM 53.6 °F 51.8 °F 94% 29.91 in 2.0 mi NW 11.5 mph - 0.02 in   Overcast
5:30 AM 51.8 °F 51.8 °F 100% 29.91 in 2.5 mi NW 8.1 mph - 0.03 in   Overcast
5:50 AM 51.8 °F 51.8 °F 100% 29.90 in 5.0 mi WNW 8.1 mph - 0.03 in   Overcast
6:10 AM 51.8 °F 51.8 °F 100% 29.91 in 4.0 mi WNW 8.1 mph - N/A   Overcast
6:30 AM 51.8 °F 51.8 °F 100% 29.91 in 2.5 mi West 5.8 mph - 0.01 in   Overcast
6:50 AM 51.8 °F 51.8 °F 100% 29.91 in 2.5 mi West 8.1 mph - 0.06 in   Overcast
7:10 AM 51.8 °F 51.8 °F 100% 29.91 in 5.0 mi WNW 5.8 mph - N/A   Overcast
7:30 AM 51.8 °F 51.8 °F 100% 29.92 in 10.0 mi West 3.5 mph - N/A   Overcast
7:55 AM 51.8 °F 51.8 °F 100% 29.92 in 10.0 mi Calm Calm - 0.01 in   Overcast
8:10 AM 51.8 °F 51.8 °F 100% 29.90 in 9.0 mi ESE 5.8 mph - N/A   Mostly Cloudy
8:30 AM 51.8 °F 51.8 °F 100% 29.92 in 9.0 mi Calm Calm - 0.01 in   Mostly Cloudy
8:50 AM 51.8 °F 51.8 °F 100% 29.93 in 10.0 mi Calm Calm - 0.01 in   Overcast
9:10 AM 51.8 °F 51.8 °F 100% 29.94 in 4.0 mi Calm Calm - N/A   Overcast
9:35 AM 51.8 °F 51.8 °F 100% 29.94 in 10.0 mi Calm Calm - N/A   Overcast
9:50 AM 51.8 °F 51.8 °F 100% 29.94 in 10.0 mi Calm Calm - N/A   Overcast
10:10 AM 53.6 °F 53.6 °F 100% 29.94 in 10.0 mi Calm Calm - N/A   Overcast
10:30 AM 53.6 °F 53.6 °F 100% 29.95 in 10.0 mi NNE 5.8 mph - N/A   Overcast
10:50 AM 53.6 °F 53.6 °F 100% 29.95 in 10.0 mi NNW 5.8 mph - N/A   Overcast
11:10 AM 55.4 °F 51.8 °F 88% 29.95 in 10.0 mi Calm Calm - N/A   Mostly Cloudy
11:30 AM 55.4 °F 51.8 °F 88% 29.95 in 10.0 mi Calm Calm - N/A   Partly Cloudy
11:55 AM 57.2 °F 51.8 °F 82% 29.94 in 10.0 mi Calm Calm - N/A   Partly Cloudy
12:10 PM 57.2 °F 53.6 °F 88% 29.93 in 10.0 mi Calm Calm - N/A   Mostly Cloudy
12:30 PM 60.8 °F 50.0 °F 68% 29.92 in 10.0 mi West 3.5 mph - N/A   Mostly Cloudy
12:50 PM 60.8 °F 51.8 °F 72% 29.91 in 10.0 mi SSW 15.0 mph - N/A   Mostly Cloudy
1:10 PM 60.8 °F 51.8 °F 72% 29.90 in 10.0 mi WSW 16.1 mph 23.0 mph N/A   Mostly Cloudy
1:30 PM 60.8 °F 51.8 °F 72% 29.89 in 10.0 mi WSW 12.7 mph 21.9 mph N/A   Scattered Clouds
1:50 PM 60.8 °F 50.0 °F 68% 29.88 in 10.0 mi SW 17.3 mph 20.7 mph N/A   Clear
2:10 PM 60.8 °F 50.0 °F 68% 29.88 in 10.0 mi WSW 16.1 mph 20.7 mph N/A   Clear
2:30 PM 60.8 °F 50.0 °F 68% 29.88 in 10.0 mi SW 15.0 mph - N/A   Clear
2:50 PM 60.8 °F 50.0 °F 68% 29.88 in 10.0 mi SW 15.0 mph - N/A   Partly Cloudy
3:10 PM 59.0 °F 48.2 °F 67% 29.88 in 10.0 mi SW 18.4 mph 23.0 mph N/A   Mostly Cloudy
3:30 PM 57.2 °F 48.2 °F 72% 29.89 in 10.0 mi SW 17.3 mph - N/A   Overcast
3:55 PM 55.4 °F 48.2 °F 77% 29.88 in 10.0 mi SW 13.8 mph - N/A   Overcast
4:10 PM 55.4 °F 48.2 °F 77% 29.88 in 10.0 mi SW 13.8 mph 18.4 mph N/A   Overcast
4:30 PM 55.4 °F 48.2 °F 77% 29.88 in 10.0 mi SW 15.0 mph - N/A   Overcast
4:50 PM 55.4 °F 46.4 °F 72% 29.88 in 10.0 mi SW 15.0 mph - N/A   Overcast
5:10 PM 55.4 °F 46.4 °F 72% 29.88 in 10.0 mi SW 17.3 mph - N/A   Overcast
5:30 PM 53.6 °F 48.2 °F 82% 29.88 in 10.0 mi SW 16.1 mph 20.7 mph N/A   Overcast
5:50 PM 53.6 °F 48.2 °F 82% 29.89 in 10.0 mi WSW 12.7 mph 18.4 mph N/A   Mostly Cloudy
6:15 PM 53.6 °F 48.2 °F 82% 29.89 in 10.0 mi WSW 10.4 mph 19.6 mph N/A   Scattered Clouds
6:30 PM 51.8 °F 48.2 °F 88% 29.89 in 10.0 mi WSW 11.5 mph - N/A   Scattered Clouds
6:50 PM 51.8 °F 46.4 °F 82% 29.89 in 10.0 mi WSW 9.2 mph - N/A   Mostly Cloudy
7:10 PM 51.8 °F 48.2 °F 88% 29.90 in 10.0 mi WSW 9.2 mph - N/A   Overcast
7:30 PM 53.6 °F 46.4 °F 77% 29.90 in 10.0 mi SW 8.1 mph - N/A   Overcast
7:50 PM 51.8 °F 46.4 °F 82% 29.91 in 10.0 mi SW 11.5 mph - N/A   Overcast
8:10 PM 51.8 °F 46.4 °F 82% 29.91 in 10.0 mi SW 11.5 mph - N/A   Overcast
8:30 PM 51.8 °F 46.4 °F 82% 29.92 in 10.0 mi SW 13.8 mph - N/A   Mostly Cloudy
8:50 PM 51.8 °F 46.4 °F 82% 29.92 in 10.0 mi SW 10.4 mph - N/A   Scattered Clouds
9:10 PM 51.8 °F 46.4 °F 82% 29.93 in 10.0 mi SW 12.7 mph - N/A   Mostly Cloudy
9:30 PM 51.8 °F 46.4 °F 82% 29.93 in 10.0 mi WSW 11.5 mph - N/A   Overcast
9:55 PM 51.8 °F 46.4 °F 82% 29.94 in 10.0 mi WSW 9.2 mph - N/A   Mostly Cloudy
10:10 PM 51.8 °F 46.4 °F 82% 29.94 in 10.0 mi WSW 6.9 mph - N/A   Mostly Cloudy
10:30 PM 51.8 °F 46.4 °F 82% 29.94 in 10.0 mi WSW 9.2 mph - N/A   Mostly Cloudy
10:50 PM 51.8 °F 46.4 °F 82% 29.95 in 10.0 mi WSW 6.9 mph - N/A   Overcast
11:10 PM 51.8 °F 46.4 °F 82% 29.95 in 10.0 mi West 4.6 mph - N/A   Overcast
11:30 PM 51.8 °F 46.4 °F 82% 29.95 in 10.0 mi West 5.8 mph - N/A   Overcast
11:50 PM 51.8 °F 44.6 °F 76% 29.95 in 10.0 mi West 4.6 mph - N/A   Mostly Cloudy